{"data":{"norad_id":60366,"epoch":"2026-05-25T03:56:11.982048Z","epoch_age_seconds":63907,"freshness":"FRESH","line1":"1 60366U 24138M   26145.16402757  .00000802  00000+0  39186-4 0  9999","line2":"2 60366  53.1613 314.5691 0001029  86.5598 273.5520 15.30197062102331","mean_motion":15.30197062,"eccentricity":0.0001029,"inclination_deg":53.1613,"raan_deg":314.5691,"arg_perigee_deg":86.5598,"mean_anomaly_deg":273.552,"bstar":3.9186e-5,"rev_number":10233,"period_min":94.105526390038,"perigee_km":474.51863094116,"apogee_km":475.9290526024,"semimajor_km":6853.3608417718,"source":"CELESTRAK","updated_at":"2026-05-25T13:38:19.240166Z"}}